Skip Page Navigation
NASA JPL Caltech
NASA Logo - Jet Propulsion Laboratory + View the NASA Portal
+ Center for Near-Earth Object Studies
JPL Home Earth Solar System Stars & Galaxies Technology
JPL Solar System Dynamics
BODIES ORBITS EPHEMERIDES TOOLS PHYSICAL DATA DISCOVERY FAQ SITE MAP
JPL Small-Body Database Browser
Search: [ help ]  
192782 (1999 UU25)
Classification: Main-belt Asteroid          SPK-ID: 2192782
Ephemeris | Orbit Diagram | Orbital Elements | Mission Design | Physical Parameters | Discovery Circumstances ]

[ show orbit diagram ]
Orbital Elements at Epoch 2459200.5 (2020-Dec-17.0) TDB
Reference: JPL 13 (heliocentric ecliptic J2000)
 Element Value Uncertainty (1-sigma)   Units 
e .2416907014015294 5.1045e-08  
a 2.682921351920351 1.4115e-08 au
q 2.034484208569582 1.3399e-07 au
i 4.061793358029801 4.8199e-06 deg
node 15.1543667977077 7.6064e-05 deg
peri 41.87741321052469 7.6789e-05 deg
M 276.3228549119077 1.2466e-05 deg
tp 2459573.590931681692
(2021-Dec-25.09093168)
5.7237e-05 TDB
period 1605.130472173847
4.39
1.2667e-05
3.468e-08
d
yr
n .2242808333907261 1.7699e-09 deg/d
Q 3.331358495271121 1.7526e-08 au
  Orbit Determination Parameters
   # obs. used (total)      438  
   data-arc span      7181 days (19.66 yr)  
   first obs. used      1999-10-02  
   last obs. used      2019-05-31  
   planetary ephem.      DE441  
   SB-pert. ephem.      SB441-N16  
   condition code      0  
   norm. resid. RMS      .54361  
   source      ORB  
   producer      Otto Matic  
   solution date      2021-Apr-13 22:17:32  

Additional Information
 Earth MOID = 1.04776 au 
 Jupiter MOID = 2.05162 au 
 T_jup = 3.329 
[ show covariance matrix ]

Ephemeris | Orbit Diagram | Orbital Elements | Mission Design | Physical Parameters | Discovery Circumstances ]

Physical Parameter Table
Parameter Symbol Value Units Sigma Reference Notes
absolute magnitude H 16.1   n/a MPO248351  

192782 (1999 UU25)          Discovered 1999-Oct-30 by CSS at Catalina
Reference: 20081113/Numbers.arcLast Updated: 2008-11-17
Ephemeris | Orbit Diagram | Orbital Elements | Mission Design | Physical Parameters | Discovery Circumstances ]
ABOUT SSD CREDITS/AWARDS PRIVACY/COPYRIGHT GLOSSARY LINKS
FirstGov 2021-May-17 15:12 UT
(server date/time)  
NASA Home Page
Site Manager:   Ryan S. Park
Webmaster  Alan B. Chamberlin